| time (UTC) | temp F | wind direction | speed knots | gust knots | rain 1hr in | rain 24hr in | rain mn in | humidity % | barometer mb |
| 20260504080830 | 59 | 24 | 0.9 | 0.0 | 0.00 | 0.00 | 0.00 | 81 | 1017.0 |
| 20260504080318 | 59 | 24 | 0.9 | 0.0 | 0.00 | 0.00 | 0.00 | 81 | 1017.0 |
| 20260504070329 | 62 | 24 | 0.9 | 0.0 | 0.00 | 0.00 | 0.00 | 75 | 1017.5 |
| 20260504050321 | 68 | 288 | 7.0 | 0.0 | 0.00 | 0.00 | 0.00 | 68 | 1018.1 |
| 20260504045815 | 68 | 297 | 7.0 | 0.0 | 0.00 | 0.00 | 0.00 | 69 | 1018.1 |
| 20260504045359 | 68 | 295 | 6.1 | 0.0 | 0.00 | 0.00 | 0.00 | 69 | 1018.1 |
| 20260504044824 | 68 | 291 | 6.1 | 0.0 | 0.00 | 0.00 | 0.00 | 67 | 1018.0 |
| 20260504044330 | 68 | 298 | 7.0 | 0.0 | 0.00 | 0.00 | 0.00 | 68 | 1017.9 |
| 20260504043847 | 68 | 286 | 7.0 | 0.0 | 0.00 | 0.00 | 0.00 | 67 | 1017.9 |
| 20260504043314 | 68 | 290 | 6.1 | 0.0 | 0.00 | 0.00 | 0.00 | 68 | 1018.0 |
| 20260504042839 | 68 | 294 | 6.1 | 0.0 | 0.00 | 0.00 | 0.00 | 71 | 1017.9 |
| 20260504042335 | 68 | 288 | 6.1 | 0.0 | 0.00 | 0.00 | 0.00 | 69 | 1017.9 |
| 20260504041842 | 68 | 291 | 5.2 | 0.0 | 0.00 | 0.00 | 0.00 | 69 | 1017.9 |
| 20260504041329 | 69 | 281 | 4.3 | 0.0 | 0.00 | 0.00 | 0.00 | 68 | 1017.9 |
| 20260504040817 | 68 | 286 | 1.7 | 0.0 | 0.00 | 0.00 | 0.00 | 71 | 1017.7 |
| 20260504040334 | 68 | 336 | 0.9 | 0.0 | 0.00 | 0.00 | 0.00 | 67 | 1017.6 |
| 20260504035830 | 69 | 336 | 2.6 | 0.0 | 0.00 | 0.00 | 0.00 | 66 | 1017.6 |
| 20260504035328 | 70 | 325 | 3.5 | 0.0 | 0.00 | 0.00 | 0.00 | 66 | 1017.6 |
| 20260504034817 | 70 | 320 | 3.5 | 0.0 | 0.00 | 0.00 | 0.00 | 63 | 1017.6 |
| 20260504034318 | 70 | 311 | 3.5 | 0.0 | 0.00 | 0.00 | 0.00 | 60 | 1017.6 |
| 20260504033816 | 70 | 297 | 4.3 | 0.0 | 0.00 | 0.00 | 0.00 | 67 | 1017.6 |
| 20260504033337 | 70 | 302 | 4.3 | 0.0 | 0.00 | 0.00 | 0.00 | 65 | 1017.6 |
| 20260504032818 | 70 | 293 | 4.3 | 0.0 | 0.00 | 0.00 | 0.00 | 68 | 1017.7 |
| 20260504032339 | 70 | 286 | 4.3 | 0.0 | 0.00 | 0.00 | 0.00 | 70 | 1017.7 |
| 20260504031828 | 70 | 284 | 3.5 | 0.0 | 0.00 | 0.00 | 0.00 | 69 | 1017.7 |
| 20260504031324 | 70 | 282 | 3.5 | 0.0 | 0.00 | 0.00 | 0.00 | 67 | 1017.7 |
| 20260504030839 | 70 | 273 | 3.5 | 0.0 | 0.00 | 0.00 | 0.00 | 67 | 1017.7 |
| 20260504030336 | 70 | 283 | 3.5 | 0.0 | 0.00 | 0.00 | 0.00 | 70 | 1017.7 |
| 20260504025831 | 70 | 275 | 3.5 | 0.0 | 0.00 | 0.00 | 0.00 | 69 | 1017.8 |
| 20260504025319 | 70 | 271 | 3.5 | 0.0 | 0.00 | 0.00 | 0.00 | 68 | 1017.8 |
| 20260504024817 | 70 | 263 | 4.3 | 0.0 | 0.00 | 0.00 | 0.00 | 69 | 1017.7 |
| 20260504024404 | 71 | 252 | 4.3 | 0.0 | 0.00 | 0.00 | 0.00 | 67 | 1017.8 |
| 20260504023832 | 71 | 252 | 5.2 | 0.0 | 0.00 | 0.00 | 0.00 | 68 | 1017.7 |
| 20260504023350 | 71 | 251 | 5.2 | 0.0 | 0.00 | 0.00 | 0.00 | 68 | 1017.7 |
| 20260504022853 | 71 | 251 | 5.2 | 0.0 | 0.00 | 0.00 | 0.00 | 67 | 1017.6 |
| 20260504022321 | 71 | 252 | 5.2 | 0.0 | 0.00 | 0.00 | 0.00 | 67 | 1017.6 |
| 20260504021817 | 71 | 258 | 4.3 | 0.0 | 0.00 | 0.00 | 0.00 | 69 | 1017.6 |
| 20260504021332 | 71 | 250 | 4.3 | 0.0 | 0.00 | 0.00 | 0.00 | 69 | 1017.5 |
| 20260504020829 | 71 | 250 | 4.3 | 0.0 | 0.00 | 0.00 | 0.00 | 69 | 1017.4 |
| 20260504020319 | 71 | 253 | 5.2 | 0.0 | 0.00 | 0.00 | 0.00 | 69 | 1017.3 |
| 20260504015815 | 71 | 244 | 6.1 | 0.0 | 0.00 | 0.00 | 0.00 | 68 | 1017.3 |
| 20260504015326 | 71 | 257 | 6.1 | 0.0 | 0.00 | 0.00 | 0.00 | 68 | 1017.4 |
| 20260504014828 | 71 | 252 | 6.1 | 0.0 | 0.00 | 0.00 | 0.00 | 69 | 1017.2 |
| 20260504014324 | 71 | 245 | 6.1 | 0.0 | 0.00 | 0.00 | 0.00 | 66 | 1017.1 |
| 20260504013830 | 71 | 227 | 6.1 | 0.0 | 0.00 | 0.00 | 0.00 | 66 | 1017.1 |
| 20260504013327 | 71 | 245 | 7.0 | 0.0 | 0.00 | 0.00 | 0.00 | 68 | 1017.1 |
| 20260504012823 | 71 | 240 | 7.0 | 0.0 | 0.00 | 0.00 | 0.00 | 68 | 1017.0 |
| 20260504012344 | 71 | 236 | 7.0 | 0.0 | 0.00 | 0.00 | 0.00 | 66 | 1016.9 |
| 20260504011841 | 71 | 237 | 7.8 | 0.0 | 0.00 | 0.00 | 0.00 | 64 | 1016.9 |
| 20260504011316 | 71 | 252 | 7.8 | 0.0 | 0.00 | 0.00 | 0.00 | 64 | 1016.8 |
| 20260504010825 | 71 | 229 | 7.0 | 0.0 | 0.00 | 0.00 | 0.00 | 65 | 1016.8 |
| 20260504010320 | 71 | 245 | 7.0 | 0.0 | 0.00 | 0.00 | 0.00 | 67 | 1016.7 |
| 20260504005815 | 71 | 242 | 6.1 | 0.0 | 0.00 | 0.00 | 0.00 | 64 | 1016.6 |
| 20260504005333 | 71 | 241 | 6.1 | 0.0 | 0.00 | 0.00 | 0.00 | 63 | 1016.6 |
| 20260504004821 | 71 | 234 | 6.1 | 0.0 | 0.00 | 0.00 | 0.00 | 63 | 1016.6 |
| 20260504004320 | 71 | 221 | 6.1 | 0.0 | 0.00 | 0.00 | 0.00 | 63 | 1016.6 |
| 20260504003814 | 71 | 236 | 7.0 | 0.0 | 0.00 | 0.00 | 0.00 | 63 | 1016.6 |
| 20260504003332 | 72 | 244 | 7.0 | 0.0 | 0.00 | 0.00 | 0.00 | 65 | 1016.6 |
| 20260504002852 | 71 | 211 | 6.1 | 0.0 | 0.00 | 0.00 | 0.00 | 65 | 1016.5 |
| 20260504002332 | 72 | 256 | 6.1 | 0.0 | 0.00 | 0.00 | 0.00 | 63 | 1016.4 |
| 20260504001821 | 71 | 241 | 7.0 | 0.0 | 0.00 | 0.00 | 0.00 | 63 | 1016.4 |
| 20260504001327 | 72 | 233 | 7.0 | 0.0 | 0.00 | 0.00 | 0.00 | 62 | 1016.3 |
| 20260504000814 | 72 | 237 | 7.0 | 0.0 | 0.00 | 0.00 | 0.00 | 63 | 1016.4 |
| 20260504000332 | 72 | 242 | 7.0 | 0.0 | 0.00 | 0.00 | 0.00 | 61 | 1016.3 |
| 20260503235826 | 72 | 252 | 7.0 | 0.0 | 0.00 | 0.00 | 0.00 | 60 | 1016.3 |
| 20260503235324 | 72 | 232 | 6.1 | 0.0 | 0.00 | 0.00 | 0.00 | 57 | 1016.3 |
| 20260503234839 | 72 | 242 | 7.0 | 0.0 | 0.00 | 0.00 | 0.00 | 57 | 1016.3 |
| 20260503234338 | 73 | 238 | 6.1 | 0.0 | 0.00 | 0.00 | 0.00 | 64 | 1016.4 |
| 20260503233830 | 73 | 250 | 5.2 | 0.0 | 0.00 | 0.00 | 0.00 | 58 | 1016.4 |
| 20260503233345 | 72 | 234 | 7.0 | 0.0 | 0.00 | 0.00 | 0.00 | 61 | 1016.3 |
| 20260503232819 | 72 | 220 | 7.0 | 0.0 | 0.00 | 0.00 | 0.00 | 58 | 1016.3 |
| 20260503232405 | 72 | 232 | 7.0 | 0.0 | 0.00 | 0.00 | 0.00 | 57 | 1016.4 |
| 20260503231826 | 72 | 224 | 7.0 | 0.0 | 0.00 | 0.00 | 0.00 | 59 | 1016.4 |
| 20260503231345 | 73 | 233 | 7.0 | 0.0 | 0.00 | 0.00 | 0.00 | 57 | 1016.4 |
| 20260503230844 | 73 | 238 | 7.0 | 0.0 | 0.00 | 0.00 | 0.00 | 59 | 1016.4 |
| 20260503225327 | 73 | 226 | 7.0 | 0.0 | 0.00 | 0.00 | 0.00 | 56 | 1016.3 |
| 20260503224821 | 73 | 249 | 6.1 | 0.0 | 0.00 | 0.00 | 0.00 | 52 | 1016.3 |
| 20260503224314 | 73 | 231 | 5.2 | 0.0 | 0.00 | 0.00 | 0.00 | 57 | 1016.2 |
| 20260503223853 | 73 | 240 | 5.2 | 0.0 | 0.00 | 0.00 | 0.00 | 54 | 1016.3 |
| 20260503223319 | 73 | 232 | 5.2 | 0.0 | 0.00 | 0.00 | 0.00 | 55 | 1016.3 |
| 20260503222815 | 75 | 245 | 6.1 | 0.0 | 0.00 | 0.00 | 0.00 | 50 | 1016.2 |
| 20260503222333 | 75 | 307 | 6.1 | 0.0 | 0.00 | 0.00 | 0.00 | 50 | 1016.2 |
| 20260503221818 | 75 | 281 | 7.0 | 0.0 | 0.00 | 0.00 | 0.00 | 43 | 1016.2 |
| 20260503221328 | 75 | 286 | 5.2 | 0.0 | 0.00 | 0.00 | 0.00 | 45 | 1016.2 |
| 20260503220828 | 75 | 291 | 5.2 | 0.0 | 0.00 | 0.00 | 0.00 | 39 | 1016.3 |
| 20260503220333 | 75 | 285 | 6.1 | 0.0 | 0.00 | 0.00 | 0.00 | 45 | 1016.4 |
| 20260503215825 | 75 | 290 | 7.8 | 0.0 | 0.00 | 0.00 | 0.00 | 42 | 1016.4 |
| 20260503215320 | 75 | 296 | 7.8 | 0.0 | 0.00 | 0.00 | 0.00 | 47 | 1016.4 |
| 20260503214831 | 75 | 299 | 7.0 | 0.0 | 0.00 | 0.00 | 0.00 | 48 | 1016.5 |
| 20260503214327 | 75 | 306 | 6.1 | 0.0 | 0.00 | 0.00 | 0.00 | 45 | 1016.5 |
| 20260503213827 | 75 | 290 | 6.1 | 0.0 | 0.00 | 0.00 | 0.00 | 40 | 1016.5 |
| 20260503213400 | 75 | 316 | 6.1 | 0.0 | 0.00 | 0.00 | 0.00 | 43 | 1016.5 |
| 20260503212833 | 75 | 300 | 5.2 | 0.0 | 0.00 | 0.00 | 0.00 | 39 | 1016.6 |
| 20260503212319 | 75 | 288 | 4.3 | 0.0 | 0.00 | 0.00 | 0.00 | 46 | 1016.6 |
| 20260503211834 | 75 | 290 | 5.2 | 0.0 | 0.00 | 0.00 | 0.00 | 37 | 1016.7 |
| 20260503211328 | 75 | 263 | 6.1 | 0.0 | 0.00 | 0.00 | 0.00 | 37 | 1016.8 |
| 20260503210822 | 75 | 300 | 6.1 | 0.0 | 0.00 | 0.00 | 0.00 | 46 | 1016.8 |
| 20260503210320 | 75 | 303 | 7.0 | 0.0 | 0.00 | 0.00 | 0.00 | 41 | 1016.8 |
| 20260503205833 | 75 | 294 | 6.1 | 0.0 | 0.00 | 0.00 | 0.00 | 47 | 1016.9 |
| 20260503205321 | 75 | 293 | 6.1 | 0.0 | 0.00 | 0.00 | 0.00 | 43 | 1016.9 |
| 20260503204819 | 75 | 285 | 5.2 | 0.0 | 0.00 | 0.00 | 0.00 | 40 | 1016.9 |
| 20260503204332 | 75 | 303 | 5.2 | 0.0 | 0.00 | 0.00 | 0.00 | 43 | 1017.0 |
| 20260503203816 | 75 | 300 | 5.2 | 0.0 | 0.00 | 0.00 | 0.00 | 44 | 1017.0 |
| 20260503203350 | 75 | 292 | 5.2 | 0.0 | 0.00 | 0.00 | 0.00 | 39 | 1017.1 |
| 20260503202823 | 74 | 293 | 5.2 | 0.0 | 0.00 | 0.00 | 0.00 | 41 | 1017.2 |
| 20260503202324 | 74 | 311 | 5.2 | 0.0 | 0.00 | 0.00 | 0.00 | 46 | 1017.3 |
| 20260503201833 | 74 | 308 | 6.1 | 0.0 | 0.00 | 0.00 | 0.00 | 45 | 1017.4 |
| 20260503201325 | 74 | 293 | 6.1 | 0.0 | 0.00 | 0.00 | 0.00 | 40 | 1017.4 |
| 20260503200826 | 74 | 286 | 6.1 | 0.0 | 0.00 | 0.00 | 0.00 | 47 | 1017.4 |
| 20260503200331 | 74 | 319 | 5.2 | 0.0 | 0.00 | 0.00 | 0.00 | 42 | 1017.4 |
| 20260503195824 | 74 | 325 | 4.3 | 0.0 | 0.00 | 0.00 | 0.00 | 47 | 1017.6 |
| 20260503195319 | 74 | 299 | 3.5 | 0.0 | 0.00 | 0.00 | 0.00 | 38 | 1017.8 |
| 20260503194820 | 75 | 317 | 4.3 | 0.0 | 0.00 | 0.00 | 0.00 | 44 | 1017.9 |
| 20260503194320 | 74 | 336 | 6.1 | 0.0 | 0.00 | 0.00 | 0.00 | 40 | 1018.0 |
| 20260503193837 | 74 | 321 | 6.1 | 0.0 | 0.00 | 0.00 | 0.00 | 37 | 1018.1 |
| 20260503193325 | 74 | 315 | 5.2 | 0.0 | 0.00 | 0.00 | 0.00 | 38 | 1018.2 |
| 20260503192822 | 74 | 303 | 5.2 | 0.0 | 0.00 | 0.00 | 0.00 | 45 | 1018.2 |
| 20260503192340 | 74 | 304 | 4.3 | 0.0 | 0.00 | 0.00 | 0.00 | 36 | 1018.3 |
| 20260503191824 | 74 | 346 | 4.3 | 0.0 | 0.00 | 0.00 | 0.00 | 42 | 1018.4 |
| 20260503191341 | 73 | 311 | 4.3 | 0.0 | 0.00 | 0.00 | 0.00 | 37 | 1018.5 |
| 20260503190840 | 73 | 280 | 4.3 | 0.0 | 0.00 | 0.00 | 0.00 | 41 | 1018.7 |
| 20260503190329 | 73 | 313 | 4.3 | 0.0 | 0.00 | 0.00 | 0.00 | 45 | 1018.8 |
| 20260503185822 | 73 | 304 | 5.2 | 0.0 | 0.00 | 0.00 | 0.00 | 40 | 1018.9 |
| 20260503185336 | 73 | 304 | 6.1 | 0.0 | 0.00 | 0.00 | 0.00 | 44 | 1018.9 |
| 20260503184844 | 73 | 281 | 6.1 | 0.0 | 0.00 | 0.00 | 0.00 | 43 | 1019.0 |
| 20260503184316 | 73 | 305 | 6.1 | 0.0 | 0.00 | 0.00 | 0.00 | 39 | 1019.0 |
| 20260503183834 | 73 | 298 | 5.2 | 0.0 | 0.00 | 0.00 | 0.00 | 42 | 1019.1 |
| 20260503183348 | 73 | 303 | 4.3 | 0.0 | 0.00 | 0.00 | 0.00 | 41 | 1019.2 |
| 20260503182848 | 73 | 321 | 3.5 | 0.0 | 0.00 | 0.00 | 0.00 | 41 | 1019.3 |
| 20260503182319 | 73 | 319 | 3.5 | 0.0 | 0.00 | 0.00 | 0.00 | 38 | 1019.3 |
| 20260503181855 | 73 | 333 | 4.3 | 0.0 | 0.00 | 0.00 | 0.00 | 37 | 1019.4 |
| 20260503181329 | 72 | 320 | 5.2 | 0.0 | 0.00 | 0.00 | 0.00 | 39 | 1019.4 |
| 20260503180829 | 72 | 315 | 6.1 | 0.0 | 0.00 | 0.00 | 0.00 | 38 | 1019.3 |
| 20260503180337 | 72 | 304 | 5.2 | 0.0 | 0.00 | 0.00 | 0.00 | 44 | 1019.3 |
| 20260503175840 | 72 | 328 | 5.2 | 0.0 | 0.00 | 0.00 | 0.00 | 36 | 1019.3 |
| 20260503175344 | 72 | 309 | 6.1 | 0.0 | 0.00 | 0.00 | 0.00 | 39 | 1019.3 |
| 20260503174823 | 71 | 321 | 7.8 | 0.0 | 0.00 | 0.00 | 0.00 | 39 | 1019.4 |
| 20260503174341 | 71 | 311 | 7.0 | 0.0 | 0.00 | 0.00 | 0.00 | 43 | 1019.3 |
| 20260503173811 | 71 | 326 | 5.2 | 0.0 | 0.00 | 0.00 | 0.00 | 43 | 1019.3 |
| 20260503173320 | 72 | 332 | 6.1 | 0.0 | 0.00 | 0.00 | 0.00 | 40 | 1019.4 |
| 20260503172813 | 71 | 317 | 6.1 | 0.0 | 0.00 | 0.00 | 0.00 | 41 | 1019.5 |
| 20260503172331 | 72 | 320 | 5.2 | 0.0 | 0.00 | 0.00 | 0.00 | 43 | 1019.5 |
| 20260503171845 | 72 | 331 | 4.3 | 0.0 | 0.00 | 0.00 | 0.00 | 45 | 1019.6 |
| 20260503171341 | 72 | 325 | 4.3 | 0.0 | 0.00 | 0.00 | 0.00 | 37 | 1019.8 |
| 20260503170829 | 71 | 331 | 5.2 | 0.0 | 0.00 | 0.00 | 0.00 | 40 | 1019.8 |
| 20260503170320 | 71 | 321 | 5.2 | 0.0 | 0.00 | 0.00 | 0.00 | 47 | 1019.9 |
| 20260503150823 | 67 | 296 | 5.2 | 0.0 | 0.00 | 0.00 | 0.00 | 64 | 1020.8 |
| 20260503150328 | 67 | 308 | 5.2 | 0.0 | 0.00 | 0.00 | 0.00 | 58 | 1020.9 |
| 20260503131333 | 63 | 302 | 1.7 | 0.0 | 0.00 | 0.00 | 0.00 | 64 | 1020.0 |
| 20260503130829 | 62 | 340 | 1.7 | 0.0 | 0.00 | 0.00 | 0.00 | 65 | 1019.9 |
| 20260503130318 | 62 | 355 | 1.7 | 0.0 | 0.00 | 0.00 | 0.00 | 63 | 1019.8 |
| 20260503110322 | 55 | 63 | 0.9 | 0.0 | 0.00 | 0.00 | 0.00 | 78 | 1019.2 |
| 20260503090347 | 54 | 32 | 0.9 | 0.0 | 0.00 | 0.00 | 0.00 | 75 | 1018.4 |
| 20260503081322 | 54 | 30 | 0.9 | 0.0 | 0.00 | 0.00 | 0.00 | 72 | 1018.3 |